Regional Weather Roundup
Issued by NWS

Home | Current Version | Previous Version | Graphics & Text | Print | Product List | Glossary On
Versions: 1 2 3 4 5 6 7 8 9 10 11 12 13 14 15 16 17 18 19 20 21 22 23 24 25 26 27 28 29 30 31 32 33 34 35 36 37 38 39 40 41 42 43 44 45 46 47 48 49 50
000
ASUS43 KFSD 301710
RWRSD

WEATHER ROUNDUP FOR SOUTH DAKOTA
NATIONAL WEATHER SERVICE SIOUX FALLS SD
1200 PM CDT SAT MAY 30 2015

NOTE: "FAIR" INDICATES FEW OR NO CLOUDS BELOW 12,000 FEET WITH NO
SIGNIFICANT WEATHER AND/OR OBSTRUCTIONS TO VISIBILITY.


SDZ001>005-009-010-012>017-301800-
NORTHWEST AND NORTH CENTRAL SOUTH DAKOTA

CITY           SKY/WX    TMP DP  RH WIND       PRES   REMARKS
BUFFALO          N/A     56  38  50 S23G30    30.16F
FAITH            N/A     53  37  54 SE15G25   30.30S
MOBRIDGE       SUNNY     52  34  50 VRB6      30.33F
$$

SDZ012>016-024>037-041>051-057-063-072>074-301800-
SOUTHWEST AND SOUTH CENTRAL SOUTH DAKOTA

CITY           SKY/WX    TMP DP  RH WIND       PRES   REMARKS
RAPID CTY ARPT PTSUNNY   55  42  61 SE20G26   30.26F
PIERRE         SUNNY     52  37  56 NE8       30.33F
CUSTER         CLOUDY    46  40  79 S7        30.27R
ELLSWORTH AFB  CLOUDY    55  43  64 S20       30.25F
PHILIP         MOSUNNY   54  38  54 SE9       30.31F
PINE RIDGE     SUNNY     55  38  52 S7        30.28F
SPEARFISH      FAIR      59  46  63 E8        30.20F
WINNER         FAIR      56  34  43 NE15G21   30.33F
$$

SDZ004>011-016>023-039-040-301800-
NORTHEAST SOUTH DAKOTA

CITY           SKY/WX    TMP DP  RH WIND       PRES   REMARKS
ABERDEEN       SUNNY     49  32  52 N14       30.36F
WATERTOWN      SUNNY     53  38  56 N12       30.31S
BROOKINGS      MOSUNNY   48  39  71 NE12G17   30.31S
SISSETON         N/A     48  39  71 N14       30.34S
$$

SDZ017-020-022-023-036>040-048>070-301800-
SOUTHEAST SOUTH DAKOTA

CITY           SKY/WX    TMP DP  RH WIND       PRES   REMARKS
SIOUX FALLS    PTSUNNY   55  44  66 N9        30.29R
HURON          SUNNY     54  37  52 N13G20    30.33S
CHAMBERLAIN    SUNNY     51  36  57 NE7       30.34S
MITCHELL       SUNNY     55  40  56 N9        30.32S
YANKTON        MOSUNNY   55  39  54 N12G22    30.28F
$$

ABBREVIATIONS USED IN REMARKS
   TC - TEMPERATURE IN CELSIUS
  WCI - WIND CHILL INDEX
   HX - HEAT INDEX
  VSB - VISIBILITY



USA.gov is the U.S. government's official web portal to all federal, state and local government web resources and services.